• In Uzbekistan
  • List of Countries
  • For 7 days
  • Water Temperature
  • Satellite Maps
  • Weather Map
  • Weather Widgets
  • user-avatar
    Login

    Hourly Weather Yerevan

    Today, 25 May, Thursday

    Time Temperature Precipitation Wind Pressure Humidity
    00:00 +13°C° 0 mm 1 mps 688 mmHg 76%
    01:00 +12°C° 0 mm 1 mps 688 mmHg 76%
    02:00 +12°C° 0 mm 1 mps 688 mmHg 76%
    03:00 +11°C° 0 mm 1 mps 688 mmHg 77%
    04:00 +12°C° 0 mm 1 mps 688 mmHg 73%
    05:00 +13°C° 0 mm 1 mps 689 mmHg 69%
    06:00 +14°C° 0 mm 1 mps 689 mmHg 65%
    07:00 +16°C° 0 mm 1 mps 689 mmHg 59%
    08:00 +19°C° 0 mm 1 mps 690 mmHg 52%
    09:00 +20°C° 0 mm 2 mps 690 mmHg 45%
    10:00 +21°C° 0 mm 2 mps 690 mmHg 41%
    11:00 +23°C° 0 mm 2 mps 690 mmHg 38%
    12:00 +24°C° 0 mm 2 mps 690 mmHg 34%
    13:00 +25°C° 0 mm 2 mps 690 mmHg 33%
    14:00 +25°C° 0 mm 2 mps 689 mmHg 32%
    15:00 +25°C° 0 mm 2 mps 689 mmHg 31%
    16:00 +25°C° 0 mm 2 mps 689 mmHg 34%
    17:00 +24°C° 0 mm 2 mps 689 mmHg 37%
    18:00 +23°C° 0 mm 2 mps 689 mmHg 40%
    19:00 +20°C° 0 mm 2 mps 689 mmHg 46%
    20:00 +18°C° 0 mm 2 mps 689 mmHg 51%
    21:00 +15°C° 0 mm 1 mps 689 mmHg 56%
    22:00 +15°C° 0 mm 1 mps 689 mmHg 58%
    23:00 +14°C° 0 mm 1 mps 689 mmHg 60%

    Tomorrow, 26 May, Friday

    Time Temperature Precipitation Wind Pressure Humidity
    00:00 +14°C° 0 mm 1 mps 689 mmHg 62%
    01:00 +13°C° 0 mm 1 mps 689 mmHg 62%
    02:00 +13°C° 0 mm 1 mps 689 mmHg 63%
    03:00 +13°C° 0 mm 1 mps 689 mmHg 64%
    04:00 +14°C° 0 mm 1 mps 689 mmHg 61%
    05:00 +15°C° 0 mm 1 mps 689 mmHg 59%
    06:00 +16°C° 0 mm 1 mps 690 mmHg 56%
    07:00 +19°C° 0 mm 1 mps 690 mmHg 48%
    08:00 +21°C° 0 mm 1 mps 690 mmHg 40%
    09:00 +23°C° 0 mm 2 mps 690 mmHg 32%
    10:00 +25°C° 0 mm 2 mps 690 mmHg 30%
    11:00 +26°C° 0 mm 2 mps 690 mmHg 28%
    12:00 +27°C° 0 mm 3 mps 690 mmHg 26%
    13:00 +27°C° 0 mm 3 mps 689 mmHg 27%
    14:00 +27°C° 0 mm 3 mps 689 mmHg 27%
    15:00 +27°C° 0 mm 3 mps 689 mmHg 28%
    16:00 +27°C° 0.1 mm 2 mps 689 mmHg 31%
    17:00 +26°C° 0.1 mm 2 mps 689 mmHg 35%
    18:00 +25°C° 0.1 mm 2 mps 688 mmHg 38%
    19:00 +23°C° 0.1 mm 2 mps 689 mmHg 43%
    20:00 +19°C° 0.1 mm 2 mps 689 mmHg 48%
    21:00 +18°C° 0.1 mm 1 mps 689 mmHg 53%
    22:00 +16°C° 0.1 mm 1 mps 688 mmHg 56%
    23:00 +16°C° 0.1 mm 1 mps 688 mmHg 59%

    Day after tomorrow, 27 May, Saturday

    Time Temperature Precipitation Wind Pressure Humidity
    00:00 +15°C° 0.1 mm 1 mps 688 mmHg 63%
    01:00 +14°C° 0 mm 1 mps 688 mmHg 63%
    02:00 +14°C° 0 mm 1 mps 687 mmHg 64%
    03:00 +13°C° 0 mm 1 mps 687 mmHg 64%
    04:00 +15°C° 0.1 mm 1 mps 687 mmHg 62%
    05:00 +16°C° 0.1 mm 1 mps 688 mmHg 59%
    06:00 +18°C° 0.1 mm 1 mps 688 mmHg 57%
    07:00 +20°C° 0.2 mm 1 mps 688 mmHg 53%
    08:00 +21°C° 0.2 mm 1 mps 688 mmHg 49%
    09:00 +23°C° 0.2 mm 2 mps 688 mmHg 45%
    10:00 +24°C° 0.3 mm 2 mps 687 mmHg 41%
    11:00 +26°C° 0.3 mm 2 mps 687 mmHg 36%
    12:00 +28°C° 0.3 mm 3 mps 687 mmHg 32%
    13:00 +28°C° 0.5 mm 3 mps 686 mmHg 34%
    14:00 +28°C° 0.5 mm 3 mps 685 mmHg 35%
    15:00 +28°C° 0.5 mm 3 mps 685 mmHg 37%
    16:00 +27°C° 0.8 mm 3 mps 685 mmHg 41%
    17:00 +26°C° 0.8 mm 2 mps 685 mmHg 45%
    18:00 +25°C° 0.8 mm 2 mps 684 mmHg 49%
    19:00 +21°C° 0.3 mm 2 mps 685 mmHg 54%
    20:00 +19°C° 0.3 mm 2 mps 685 mmHg 59%
    21:00 +17°C° 0.3 mm 2 mps 685 mmHg 64%
    22:00 +16°C° 0.2 mm 2 mps 686 mmHg 66%
    23:00 +16°C° 0.2 mm 1 mps 686 mmHg 67%

    28 May, Sunday

    Time Temperature Precipitation Wind Pressure Humidity
    00:00 +15°C° 0.2 mm 1 mps 686 mmHg 69%
    01:00 +14°C° 0 mm 1 mps 686 mmHg 69%
    02:00 +14°C° 0 mm 1 mps 686 mmHg 69%
    03:00 +14°C° 0 mm 1 mps 686 mmHg 70%
    04:00 +15°C° 0 mm 1 mps 687 mmHg 68%
    05:00 +16°C° 0 mm 1 mps 687 mmHg 66%
    06:00 +18°C° 0 mm 1 mps 688 mmHg 64%
    07:00 +20°C° 0 mm 1 mps 688 mmHg 57%
    08:00 +22°C° 0 mm 1 mps 689 mmHg 50%
    09:00 +24°C° 0 mm 1 mps 689 mmHg 43%
    10:00 +25°C° 0 mm 1 mps 689 mmHg 39%
    11:00 +27°C° 0 mm 2 mps 689 mmHg 36%
    12:00 +28°C° 0 mm 2 mps 689 mmHg 32%
    13:00 +28°C° 0.1 mm 2 mps 688 mmHg 31%
    14:00 +28°C° 0.1 mm 2 mps 688 mmHg 31%
    15:00 +28°C° 0.1 mm 2 mps 688 mmHg 30%
    16:00 +28°C° 0.1 mm 2 mps 688 mmHg 33%
    17:00 +27°C° 0.1 mm 2 mps 688 mmHg 35%
    18:00 +26°C° 0.1 mm 2 mps 688 mmHg 38%
    19:00 +24°C° 0 mm 2 mps 688 mmHg 43%
    20:00 +21°C° 0 mm 1 mps 688 mmHg 48%
    21:00 +19°C° 0 mm 1 mps 688 mmHg 53%
    22:00 +18°C° 0 mm 1 mps 688 mmHg 55%
    23:00 +16°C° 0 mm 1 mps 688 mmHg 56%

    29 May, Monday

    Time Temperature Precipitation Wind Pressure Humidity
    00:00 +16°C° 0 mm 2 mps 688 mmHg 58%
    01:00 +15°C° 0 mm 2 mps 688 mmHg 59%
    02:00 +15°C° 0 mm 1 mps 688 mmHg 61%
    03:00 +14°C° 0 mm 1 mps 688 mmHg 62%
    04:00 +15°C° 0 mm 1 mps 689 mmHg 60%
    05:00 +18°C° 0 mm 1 mps 689 mmHg 57%
    06:00 +19°C° 0 mm 1 mps 689 mmHg 55%
    07:00 +21°C° 0 mm 1 mps 690 mmHg 47%
    08:00 +23°C° 0 mm 2 mps 690 mmHg 39%
    09:00 +25°C° 0 mm 2 mps 690 mmHg 31%
    10:00 +26°C° 0 mm 2 mps 690 mmHg 28%
    11:00 +28°C° 0 mm 2 mps 690 mmHg 26%
    12:00 +29°C° 0 mm 2 mps 690 mmHg 24%
    13:00 +29°C° 0.1 mm 2 mps 690 mmHg 25%
    14:00 +29°C° 0.1 mm 2 mps 690 mmHg 26%
    15:00 +29°C° 0.1 mm 2 mps 689 mmHg 27%
    16:00 +28°C° 0.3 mm 2 mps 689 mmHg 32%
    17:00 +27°C° 0.3 mm 2 mps 689 mmHg 37%
    18:00 +26°C° 0.3 mm 1 mps 690 mmHg 42%
    19:00 +24°C° 0.3 mm 2 mps 690 mmHg 48%
    20:00 +21°C° 0.3 mm 2 mps 690 mmHg 55%
    21:00 +19°C° 0.3 mm 2 mps 690 mmHg 62%
    22:00 +18°C° 0.2 mm 2 mps 690 mmHg 65%
    23:00 +17°C° 0.2 mm 2 mps 690 mmHg 68%

    30 May, Tuesday

    Time Temperature Precipitation Wind Pressure Humidity
    00:00 +17°C° 0.2 mm 2 mps 690 mmHg 71%
    01:00 +16°C° 0.1 mm 2 mps 690 mmHg 72%
    02:00 +16°C° 0.1 mm 1 mps 689 mmHg 74%
    03:00 +16°C° 0.1 mm 1 mps 689 mmHg 75%
    04:00 +16°C° 0.1 mm 1 mps 689 mmHg 73%
    05:00 +18°C° 0.1 mm 1 mps 690 mmHg 71%
    06:00 +19°C° 0.1 mm 1 mps 690 mmHg 69%
    07:00 +21°C° 0.1 mm 1 mps 690 mmHg 59%
    08:00 +23°C° 0.1 mm 1 mps 690 mmHg 50%
    09:00 +25°C° 0.1 mm 1 mps 690 mmHg 41%
    10:00 +27°C° 0.1 mm 1 mps 690 mmHg 37%
    11:00 +28°C° 0.1 mm 2 mps 690 mmHg 34%
    12:00 +30°C° 0.1 mm 2 mps 690 mmHg 30%
    13:00 +30°C° 0.2 mm 2 mps 689 mmHg 30%
    14:00 +30°C° 0.2 mm 2 mps 689 mmHg 29%
    15:00 +31°C° 0.2 mm 3 mps 689 mmHg 28%
    16:00 +30°C° 0.2 mm 3 mps 689 mmHg 31%
    17:00 +29°C° 0.2 mm 3 mps 689 mmHg 33%
    18:00 +28°C° 0.2 mm 3 mps 689 mmHg 36%
    19:00 +25°C° 0.1 mm 3 mps 689 mmHg 42%
    20:00 +21°C° 0.1 mm 2 mps 689 mmHg 47%
    21:00 +18°C° 0.1 mm 2 mps 689 mmHg 53%
    22:00 +17°C° 0 mm 2 mps 688 mmHg 54%
    23:00 +17°C° 0 mm 2 mps 688 mmHg 56%
    Show more